Погода в Скиделе

Беларусь     53°35′24″N   24°15′02″E
темп.,
°C
ветер,
м/с
пор.,
м/с
влажн.,
%
обл.,
%
осадки,
мм/ч
давл.,
гПа
погр.,
м
13 мая, чт
чт1300:00+10вюв37858 0.0 1011118
03:00+8ююв2288100 0.0 101013
06:00+8з228784 0.0 100719
09:00+12ссв4577100 0.0 1005450
12:00+10юз3595100 3.1 1004296
15:00+10ююз4794100 6.3 1003447
18:00+11ююв588834 0.2 1002362
21:00+10юв6139196 0.2 1002384
14 мая, пт
пт1400:00+10юв4109622 0.6 1002322
03:00+10юв489795 0.6 1001268
06:00+10юв3999100 2.1 1001442
09:00+12ююв5895100 3.3 1001444
12:00+14ю688498 1.3 1002865
15:00+16ююз5777100 1.7 1002959
18:00+16ююз468288 1.6 1002479
21:00+13юз338715 2.1 100327
15 мая, сб
сб1500:00+10зсз33935 0.0 100435
03:00+8сз34935 0.0 100561
06:00+7зсз34955 0.0 100667
09:00+12з34825 0.0 1007414
12:00+16зюз347284 0.2 10081061
15:00+14зюз5679100 0.6 1009671
18:00+15зюз457175 0.0 1008868
21:00+12ююз338890 0.0 100970
16 мая, вс
вс1600:00+11юз2388100 0.1 101068
03:00+9ююз229424 0.1 101018
06:00+8ю2395100 0.0 101053
09:00+14ююв4679100 0.0 1010373
12:00+18ююв796746 0.0 10091206
15:00+19ююв7106821 0.8 10081494
18:00+18ююв6973100 0.8 1007961
21:00+14юв51289100 4.4 1006243
17 мая, пн
пн1700:00+13ююз1298100 3.6 100640
03:00+12юз3599100 5.1 1006185
06:00+12зюз3697100 0.4 1006320
09:00+13зюз2490100 0.4 1008417
12:00+16зюз34677 0.3 10081129
15:00+18з335761 0.4 10071707
18:00+18з23604 0.6 10081119
21:00+14ююв11737 0.8 100711